Weather History for Cleveland, OH

Change the Weather History Date:

Sunday, March 10, 2013

  Actual Average Record
Temperature  
Mean Temperature 57 °F 36 °F  
Max Temperature 67 °F 44 °F 72 °F (1973)
Min Temperature 47 °F 28 °F 5 °F (1984)
Degree Days  
Heating Degree Days 8 29  
Month to date heating degree days 325 301  
Since 1 July heating degree days 4504 4518  
Cooling Degree Days 0 0  
Month to date cooling degree days 0 0  
Year to date cooling degree days 0 0  
Growing Degree Days 2 (Base 50)    
Moisture  
Dew Point 34 °F    
Average Humidity 44    
Maximum Humidity 56    
Minimum Humidity 32    
Precipitation  
Precipitation T in 0.08 in 1.03 in (2009)
Month to date precipitation 0.21 0.85  
Year to date precipitation 4.68 5.91  
Snow  
Snow 0.00 in 0.50 in - ()
Month to date snowfall 3.1 4.8  
Since 1 July snowfall 43.8 57.0  
Snow Depth 0.00 in    
Sea Level Pressure  
Sea Level Pressure 30.00 in    
Wind  
Wind Speed 13 mph (South)    
Max Wind Speed 23 mph    
Max Gust Speed 30 mph    
Visibility 10 miles    
Events      
T = Trace of Precipitation, MM = Missing Value Source: NWS Daily Summary

Daily Weather History Graph

Daily Weather History Graph

Search for Another Location

Airport:

Trip Planner

Search our weather history database for the weather conditions in past years. The results will help you decide how hot, cold, wet, or windy it might be!

Date:

Astronomy

Mar. 10, 2013 Rise Set
Actual Time 7:47 AM EDT 7:28 PM EDT
Civil Twilight 7:19 AM EDT 7:56 PM EDT
Nautical Twilight 6:47 AM EDT 8:28 PM EDT
Astronomical Twilight 6:15 AM EDT 9:00 PM EDT
Moon 6:46 AM EDT (3/10) 6:35 PM EDT (3/10)
Length of Visible Light 12h 36m
Length of Day
11h 41m
Waning Crescent, 2% of the Moon is Illuminated
Mar 10
Waning Crescent
Mar 11
New
Mar 19
First Quarter
Mar 27
Full
Apr 3
Last Quarter

Hourly Weather History & Observations

Time (EDT) Temp. Dew Point Humidity Pressure Visibility Wind Dir Wind Speed Gust Speed Precip Events Conditions
12:51 AM 48.2 °F 30.2 °F 50% 30.09 in 10.0 mi SSE 11.5 mph - N/A   Overcast
1:51 AM 48.0 °F 30.0 °F 50% 30.09 in 10.0 mi SSE 11.5 mph - N/A   Mostly Cloudy
3:51 AM 46.9 °F 28.9 °F 50% 30.06 in 10.0 mi SSE 11.5 mph - N/A   Mostly Cloudy
4:51 AM 46.9 °F 30.0 °F 52% 30.04 in 10.0 mi SSE 11.5 mph - N/A   Partly Cloudy
5:51 AM 48.0 °F 30.0 °F 50% 30.06 in 10.0 mi South 9.2 mph - N/A   Overcast
6:51 AM 51.1 °F 28.9 °F 43% 30.06 in 10.0 mi South 13.8 mph - 0.00 in   Overcast
7:51 AM 50.0 °F 30.2 °F 47% 30.05 in 10.0 mi South 12.7 mph 21.9 mph N/A   Overcast
8:51 AM 50.0 °F 35.1 °F 57% 30.08 in 10.0 mi South 13.8 mph - N/A   Mostly Cloudy
9:51 AM 52.0 °F 33.1 °F 49% 30.08 in 10.0 mi South 13.8 mph 21.9 mph N/A   Mostly Cloudy
10:51 AM 55.9 °F 34.0 °F 44% 30.07 in 10.0 mi South 18.4 mph 23.0 mph N/A   Mostly Cloudy
11:51 AM 60.1 °F 36.0 °F 41% 30.05 in 10.0 mi South 20.7 mph 28.8 mph N/A   Mostly Cloudy
12:51 PM 62.1 °F 37.0 °F 39% 30.03 in 10.0 mi South 19.6 mph 25.3 mph N/A   Mostly Cloudy
1:51 PM 62.1 °F 36.0 °F 38% 30.00 in 10.0 mi South 19.6 mph 25.3 mph N/A   Mostly Cloudy
2:51 PM 63.0 °F 36.0 °F 37% 29.97 in 10.0 mi South 16.1 mph 20.7 mph N/A   Mostly Cloudy
3:51 PM 66.0 °F 35.1 °F 32% 29.97 in 10.0 mi SSW 18.4 mph 24.2 mph N/A   Mostly Cloudy
4:51 PM 66.9 °F 36.0 °F 32% 29.96 in 10.0 mi SSW 15.0 mph 25.3 mph N/A   Mostly Cloudy
5:51 PM 64.9 °F 35.1 °F 33% 29.95 in 10.0 mi South 10.4 mph - N/A   Mostly Cloudy
6:51 PM 64.0 °F 37.0 °F 37% 29.94 in 10.0 mi South 9.2 mph - N/A   Mostly Cloudy
7:51 PM 61.0 °F 35.1 °F 38% 29.94 in 10.0 mi South 8.1 mph - N/A   Scattered Clouds
8:51 PM 57.2 °F 35.6 °F 44% 29.92 in 10.0 mi SE 8.1 mph - N/A   Mostly Cloudy
9:51 PM 60.1 °F 35.1 °F 39% 29.90 in 10.0 mi SSE 13.8 mph - N/A   Overcast
10:51 PM 60.1 °F 35.1 °F 39% 29.89 in 10.0 mi SSE 10.4 mph - N/A   Overcast
11:51 PM 61.0 °F 35.1 °F 38% 29.87 in 10.0 mi SSE 11.5 mph - N/A   Overcast
12:51 AM 61.0 °F 34.0 °F 36% 29.87 in 10.0 mi SSE 12.7 mph - N/A   Overcast